Change the Weather History Date:

Monday, March 17, 2014

  Actual Average Record
Temperature  
Mean Temperature - -  
Max Temperature - 38 °F 64 °F (2012)
Min Temperature - 22 °F 8 °F (1997)
Moisture  
Dew Point -    
Average Humidity    
Maximum Humidity    
Minimum Humidity    
Precipitation  
Precipitation 0.00 in - - ()
Sea Level Pressure  
Sea Level Pressure 30.02 in    
Wind  
Wind Speed 5 mph (ENE)    
Max Wind Speed 9 mph    
Max Gust Speed -    
Visibility 10 miles    
Events      
Averages and records for this station are not official NWS values.
T = Trace of Precipitation, MM = Missing Value Source: NWS Daily Summary

Daily Weather History Graph

Daily Weather History Graph

Search for Another Location

Airport or City:

Trip Planner

Search our weather history database for the weather conditions in past years. The results will help you decide how hot, cold, wet, or windy it might be!

Date:

Astronomy

Mar. 17, 2014 Rise Set
Actual Time 7:07 AM EDT 7:08 PM EDT
Civil Twilight 6:39 AM EDT 7:35 PM EDT
Nautical Twilight 6:07 AM EDT 8:08 PM EDT
Astronomical Twilight 5:34 AM EDT 8:41 PM EDT
Moon 8:23 PM EDT (3/17) 7:20 AM EDT (3/17)
Length of Visible Light 12h 55m
Length of Day
12h 00m
Full, 99% of the Moon is Illuminated
Mar 17
Full
Mar 23
Last Quarter
Mar 30
New
Apr 7
First Quarter
Apr 15
Full

Hourly Weather History & Observations

Time (EDT) Temp. Dew Point Humidity Pressure Visibility Wind Dir Wind Speed Gust Speed Precip Events Conditions
12:15 AM - - N/A% 30.10 in 10.0 mi NNW 6.9 mph - N/A   Clear
12:35 AM - - N/A% 30.09 in 10.0 mi North 9.2 mph - N/A   Clear
12:55 AM - - N/A% 30.07 in 10.0 mi North 8.1 mph - N/A   Clear
1:15 AM - - N/A% 30.07 in 10.0 mi North 9.2 mph - N/A   Partly Cloudy
1:35 AM - - N/A% 30.08 in 10.0 mi North 6.9 mph - N/A   Clear
1:55 AM - - N/A% 30.07 in 10.0 mi North 8.1 mph - N/A   Clear
2:15 AM - - N/A% 30.05 in 10.0 mi North 8.1 mph - N/A   Partly Cloudy
2:35 AM - - N/A% 30.05 in 10.0 mi NNW 9.2 mph - N/A   Clear
2:55 AM - - N/A% 30.04 in 10.0 mi North 5.8 mph - N/A   Clear
3:15 AM - - N/A% 30.03 in 10.0 mi North 6.9 mph - N/A   Clear
3:35 AM - - N/A% 30.02 in 10.0 mi North 6.9 mph - N/A   Clear
3:55 AM - - N/A% 30.02 in 10.0 mi North 3.5 mph - N/A   Clear
4:15 AM - - N/A% 30.02 in 10.0 mi NNW 4.6 mph - N/A   Clear
4:35 AM - - N/A% 30.01 in 10.0 mi NNW 4.6 mph - N/A   Clear
4:55 AM - - N/A% 30.01 in 10.0 mi North 4.6 mph - N/A   Clear
5:15 AM - - N/A% 30.01 in 10.0 mi Calm Calm - N/A   Clear
5:35 AM - - N/A% 30.02 in 10.0 mi North - - N/A   Partly Cloudy
5:55 AM - - N/A% 30.02 in 10.0 mi ESE 6.9 mph - N/A   Partly Cloudy
6:15 AM - - N/A% 30.02 in 10.0 mi ESE 5.8 mph - N/A   Partly Cloudy
6:35 AM - - N/A% 30.02 in 10.0 mi East 6.9 mph - N/A   Clear
6:55 AM - - N/A% 30.02 in 10.0 mi ESE 5.8 mph - N/A   Clear
7:15 AM - - N/A% 30.02 in 10.0 mi East 4.6 mph - N/A   Partly Cloudy
7:35 AM - - N/A% 30.03 in 10.0 mi ENE 4.6 mph - N/A   Clear
7:55 AM - - N/A% 30.04 in 10.0 mi NE 4.6 mph - N/A   Clear
8:15 AM - - N/A% 30.04 in 10.0 mi East 5.8 mph - N/A   Clear
8:35 AM - - N/A% 30.04 in 10.0 mi ENE 4.6 mph - N/A   Clear
8:55 AM - - N/A% 30.04 in 10.0 mi East 4.6 mph - N/A   Clear
9:15 AM - - N/A% 30.05 in 10.0 mi East 4.6 mph - N/A   Clear
9:35 AM - - N/A% 30.05 in 10.0 mi Calm Calm - N/A   Clear
9:55 AM - - N/A% 30.04 in 10.0 mi NE 3.5 mph - N/A   Clear
10:15 AM - - N/A% 30.04 in 10.0 mi East 3.5 mph - N/A   Clear
10:35 AM - - N/A% 30.03 in 10.0 mi East 5.8 mph - N/A   Clear
10:55 AM - - N/A% 30.02 in 10.0 mi Calm Calm - N/A   Clear
11:15 AM - - N/A% 30.02 in 10.0 mi NE 4.6 mph - N/A   Clear
11:35 AM - - N/A% 30.03 in 10.0 mi South 4.6 mph - N/A   Clear
11:55 AM - - N/A% 30.03 in 10.0 mi SE 4.6 mph - N/A   Clear
12:15 PM - - N/A% 30.03 in 10.0 mi Calm Calm - N/A   Clear
12:35 PM - - N/A% 30.02 in 10.0 mi Calm Calm - N/A   Clear
12:55 PM - - N/A% 30.02 in 10.0 mi ESE 3.5 mph - N/A   Clear
1:15 PM - - N/A% 30.00 in 10.0 mi East 3.5 mph - N/A   Clear
1:35 PM - - N/A% 29.98 in 10.0 mi Calm Calm - N/A   Clear
1:55 PM - - N/A% 29.98 in 10.0 mi Calm Calm - N/A   Clear
2:15 PM - - N/A% 29.99 in 10.0 mi NE 3.5 mph - N/A   Clear
2:35 PM - - N/A% 29.98 in 10.0 mi SSW 4.6 mph - N/A   Clear
2:55 PM - - N/A% 29.99 in 10.0 mi Calm Calm - N/A   Clear
3:15 PM - - N/A% 29.97 in 10.0 mi SSE 4.6 mph - N/A   Clear
3:35 PM - - N/A% 29.97 in 10.0 mi SSE 5.8 mph - N/A   Clear
3:55 PM - - N/A% 29.97 in 10.0 mi Calm Calm - N/A   Clear
4:15 PM - - N/A% 29.97 in 10.0 mi Calm Calm - N/A   Clear
4:35 PM - - N/A% 29.97 in 10.0 mi ESE 3.5 mph - N/A   Clear
4:55 PM - - N/A% 29.96 in 10.0 mi Calm Calm - N/A   Clear
5:15 PM - - N/A% 29.97 in 10.0 mi Calm Calm - N/A   Clear
5:35 PM - - N/A% 29.97 in 10.0 mi SW 5.8 mph - N/A   Clear
5:55 PM - - N/A% 29.98 in 10.0 mi SW 4.6 mph - N/A   Clear
6:15 PM - - N/A% 29.98 in 10.0 mi Calm Calm - N/A   Clear
6:35 PM - - N/A% 29.99 in 10.0 mi South 4.6 mph - N/A   Clear
6:55 PM - - N/A% 29.99 in 10.0 mi SSE 4.6 mph - N/A   Clear
7:15 PM - - N/A% 29.99 in 10.0 mi SSE 8.1 mph - N/A   Clear
7:35 PM - - N/A% 30.00 in 10.0 mi ESE 6.9 mph - N/A   Clear
7:55 PM - - N/A% 30.01 in 10.0 mi ESE 6.9 mph - N/A   Clear
8:15 PM - - N/A% 30.03 in 10.0 mi ESE 8.1 mph - N/A   Clear
8:35 PM - - N/A% 30.02 in 10.0 mi East 9.2 mph - N/A   Clear
8:55 PM - - N/A% 30.03 in 10.0 mi East 6.9 mph - N/A   Clear
9:15 PM - - N/A% 30.04 in 10.0 mi East 5.8 mph - N/A   Clear
9:35 PM - - N/A% 30.05 in 10.0 mi East 5.8 mph - N/A   Clear
9:55 PM - - N/A% 30.06 in 10.0 mi East 4.6 mph - N/A   Clear
10:15 PM - - N/A% 30.05 in 10.0 mi East 4.6 mph - N/A   Clear
10:35 PM - - N/A% 30.05 in 10.0 mi East 5.8 mph - N/A   Clear
10:55 PM - - N/A% 30.06 in 10.0 mi East 4.6 mph - N/A   Clear
11:15 PM - - N/A% 30.06 in 10.0 mi East 5.8 mph - N/A   Clear
11:35 PM - - N/A% 30.06 in 10.0 mi East 5.8 mph - N/A   Clear
11:55 PM - - N/A% 30.07 in 10.0 mi East 4.6 mph - N/A   Clear